Location: Arapaho Elementary School
(32.9607°N, 96.7625°W)
Time: 13:34:28
(UTC+00:00)

Cosmos 1500 Rocket - Pass Details

Date: 09 July 2022
Orbit: 601 x 632 km, 82.5° (Epoch: 18 August)

Event Time Altitude Azimuth Distance (km) Brightness Sun altitude
Exits shadow 07:57:39 22° 75° (ENE) 1,377 5.6 -31.1°
Drops below altitude 10° 08:00:28 10° 37° (NE) 2,014 7.0 -30.8°
Sets 08:03:04 0° 23° (NNE) 2,928 8.2 -30.6°
